Regional Weather Roundup
Issued by NWS Albany, NY

Home | Current Version | Previous Version | Text Only | Print | Product List | Glossary On
Versions: 1 2 3 4 5 6 7 8 9 10 11 12 13 14 15 16 17 18 19 20 21 22 23 24 25 26 27 28 29 30 31 32 33 34 35 36 37 38 39 40 41 42 43 44 45 46 47 48 49 50
000
ASUS41 KALY 301610
RWRALY

NEW YORK STATE HOURLY WEATHER ROUNDUP
NATIONAL WEATHER SERVICE ALBANY NY
1200 PM EDT MON MAY 30 2016

NOTE: "FAIR" INDICATES FEW OR NO CLOUDS BELOW 12,000 FEET WITH NO
SIGNIFICANT WEATHER AND/OR NO OBSTRUCTIONS TO VISIBILITY.

NYZ032-033-038>043-046>054-057>066-NYZ062>081-082-084-301700-
EAST


CITY           SKY/WX    TMP DP  RH WIND       PRES   REMARKS
ALBANY         MOSUNNY   75  64  68 S9        29.93F
GLENS FALLS    SUNNY     78  65  63 S13G20    29.90F
POUGHKEEPSIE   CLOUDY    74  65  73 SW7       29.96F
NEWBURGH       PTSUNNY   73  68  83 W6        29.98F
MONTGOMERY     MOSUNNY   75  67  76 S7        29.97F
WHITE PLAINS   CLOUDY    74  66  76 VRB3      29.98F
ISLIP          FOG       69  67  93 SE6       29.99F VSB 3/4
NEW YORK CITY  PTSUNNY   77  71  82 VRB5      29.96F
CENTRAL PARK   PTSUNNY   76  67  73 VRB3      30.00F
$$

NYZ005>009-017-018-044>046-055-056-301700-
CENTRAL


CITY           SKY/WX    TMP DP  RH WIND       PRES   REMARKS
FULTON         MOSUNNY   81  64  56 SW6       29.92S
SYRACUSE       MOSUNNY   78  63  59 W13       29.91F
ROME           MOSUNNY   79  65  62 W8        29.92F
ELMIRA         SUNNY     81  62  52 SW9       29.95F
BINGHAMTON     MOSUNNY   75  62  64 S6        29.98F
MONTICELLO     CLOUDY    73  64  73 SW5       30.01F
$$

NYZ026>034-041>043-087-301700-
NORTH


CITY           SKY/WX    TMP DP  RH WIND       PRES   REMARKS
WATERTOWN      SUNNY     75  61  61 SW16      29.89F
FORT DRUM      NOT AVBL
MASSENA        SUNNY     82  63  52 SW13G22   29.82F
SARANAC LAKE   MOSUNNY   78  59  51 SW14G22   29.88F
PLATTSBURGH    MOSUNNY   77  67  71 SE15      29.82F
$$

NYZ001>004-010>016-019>021-085-301700-
WEST


CITY           SKY/WX    TMP DP  RH WIND       PRES   REMARKS
NIAGARA FALLS  PTSUNNY   79  61  53 SW9       29.94F
BUFFALO        MOSUNNY   73  59  61 SW13      29.96F
DUNKIRK        LGT RAIN  75  58  55 W13       29.99S
WELLSVILLE     MOSUNNY   74  60  61 W10G20    30.04S
ROCHESTER      MOSUNNY   79  62  56 SW16      29.93F
PENN YAN       MOSUNNY   79  63  57 SW9       29.96S
$$

             KEY
       WCI = WIND CHILL INDEX
       VSB = VISIBILITY
       HX  = HEAT INDEX
$$



USA.gov is the U.S. government's official web portal to all federal, state and local government web resources and services.